Location: Poughquag
(41.6090°N, 73.6820°W)
Time: 12:08:31
(UTC-04:00)

Vanguard 1 - Pass Details

Date: 05 June 2020
Orbit: 650 x 3833 km, 34.2° (Epoch: 07 July)

Event Time Altitude Azimuth Distance (km) Brightness Sun altitude
Rises 05:09:34 0° 234° (SW) 5,208 - -2.7°
Exits shadow 05:10:22 - 233° (SW) 5,018 13.0 -2.5°
Reaches altitude 10° 05:12:27 10° 230° (SW) 4,550 12.8 -2.2°
Maximum altitude 05:25:56 57° 156° (SSE) 3,389 12.8 -0.1°
Drops below altitude 10° 05:47:26 10° 86° (E) 6,914 15.8 3.4°
Sets 05:53:07 0° 83° (E) 7,975 16.3 4.4°
